SWA570 KRNO-KPHX

Flight info

Callsign SWA570
Flight time 1h 28m
Altitude 37000
Route ZEFFR9 PESKE BABIT J92 BLD COYOT5
Aircraft B38M/M-SDE1FGHILORVWXY/HB1

Departure

Time 2026-05-05 03:07
Airport Reno Tahoe International Airport (KRNO)

Arrival

Time 2026-05-05 04:35
Airport Phoenix Sky Harbor International Airport (KPHX)
Time Latitude Longitude Altitude Speed Heading
2026-05-05 02:33 39.50534 -119.77287 4422 ft 0 kts 181°
2026-05-05 02:56 39.50541 -119.77287 4421 ft 3 kts 181°
2026-05-05 02:56 39.50559 -119.77286 4421 ft 2 kts 180°
2026-05-05 02:57 39.50575 -119.77294 4421 ft 3 kts 118°
2026-05-05 02:57 39.50577 -119.77298 4421 ft 0 kts 105°
2026-05-05 03:01 39.50577 -119.77296 4421 ft 1 kts 105°
2026-05-05 03:01 39.50577 -119.77266 4423 ft 7 kts 79°
2026-05-05 03:01 39.50588 -119.77175 4421 ft 10 kts 79°
2026-05-05 03:02 39.50631 -119.77151 4422 ft 10 kts
2026-05-05 03:02 39.50729 -119.77145 4422 ft 16 kts
2026-05-05 03:02 39.50844 -119.77151 4423 ft 17 kts 358°
2026-05-05 03:02 39.50965 -119.77154 4422 ft 18 kts
2026-05-05 03:03 39.51089 -119.77150 4424 ft 18 kts
2026-05-05 03:03 39.51212 -119.77145 4423 ft 16 kts
2026-05-05 03:03 39.51326 -119.77145 4424 ft 9 kts 360°
2026-05-05 03:03 39.51356 -119.77137 4424 ft 3 kts 25°
2026-05-05 03:04 39.51375 -119.77088 4424 ft 16 kts 83°
2026-05-05 03:04 39.51375 -119.76937 4423 ft 16 kts 91°
2026-05-05 03:04 39.51374 -119.76861 4423 ft 0 kts 91°
2026-05-05 03:05 39.51373 -119.76857 4423 ft 3 kts 91°
2026-05-05 03:05 39.51372 -119.76779 4423 ft 11 kts 91°
2026-05-05 03:05 39.51343 -119.76690 4423 ft 12 kts 150°
2026-05-05 03:06 39.51285 -119.76677 4423 ft 0 kts 178°
2026-05-05 03:06 39.51203 -119.76676 4426 ft 37 kts 180°
2026-05-05 03:06 39.50581 -119.76676 4421 ft 143 kts 181°
2026-05-05 03:06 39.49284 -119.76695 4843 ft 212 kts 182°
2026-05-05 03:07 39.47795 -119.76717 6368 ft 212 kts 184°
2026-05-05 03:07 39.46303 -119.76772 7716 ft 219 kts 187°
2026-05-05 03:07 39.44733 -119.76852 8783 ft 233 kts 187°
2026-05-05 03:07 39.43049 -119.76942 9806 ft 252 kts 186°
2026-05-05 03:08 39.41235 -119.76994 10868 ft 270 kts 181°
2026-05-05 03:08 39.39297 -119.76985 11920 ft 287 kts 179°
2026-05-05 03:08 39.37239 -119.76961 12954 ft 304 kts 179°
2026-05-05 03:08 39.35066 -119.76881 13933 ft 321 kts 172°
2026-05-05 03:09 39.32845 -119.76216 14833 ft 336 kts 158°
2026-05-05 03:09 39.30737 -119.74780 15699 ft 351 kts 142°
2026-05-05 03:09 39.28919 -119.72650 16527 ft 367 kts 132°
2026-05-05 03:09 39.27153 -119.70171 17433 ft 382 kts 128°
2026-05-05 03:10 39.25399 -119.67525 18469 ft 392 kts 127°
2026-05-05 03:10 39.23604 -119.64824 19549 ft 399 kts 128°
2026-05-05 03:10 39.21755 -119.62135 20645 ft 403 kts 129°
2026-05-05 03:10 39.19859 -119.59447 21715 ft 408 kts 129°
2026-05-05 03:11 39.17943 -119.56734 22708 ft 411 kts 128°
2026-05-05 03:11 39.16017 -119.53981 23675 ft 414 kts 128°
2026-05-05 03:11 39.14053 -119.51244 24580 ft 418 kts 130°
2026-05-05 03:11 39.11962 -119.48601 25428 ft 424 kts 133°
2026-05-05 03:12 39.09774 -119.46008 26235 ft 430 kts 134°
2026-05-05 03:12 39.07558 -119.43381 26999 ft 435 kts 133°
2026-05-05 03:12 39.05358 -119.40684 27711 ft 439 kts 133°
2026-05-05 03:12 39.03192 -119.37954 28359 ft 444 kts 133°
2026-05-05 03:13 39.00944 -119.35111 29033 ft 450 kts 133°
2026-05-05 03:13 38.98713 -119.32326 29717 ft 455 kts 134°
2026-05-05 03:13 38.96565 -119.29684 30405 ft 458 kts 134°
2026-05-05 03:13 38.94785 -119.27505 31021 ft 458 kts 135°
2026-05-05 03:14 38.92480 -119.24678 31862 ft 458 kts 135°
2026-05-05 03:14 38.90183 -119.21843 32687 ft 458 kts 136°
2026-05-05 03:14 38.88271 -119.19477 32937 ft 457 kts 135°
2026-05-05 03:15 38.83757 -119.13910 32943 ft 454 kts 135°
2026-05-05 03:15 38.79227 -119.08336 32938 ft 451 kts 133°
2026-05-05 03:16 38.75711 -119.01709 32949 ft 451 kts 117°
2026-05-05 03:16 38.72927 -118.94503 32930 ft 451 kts 116°
2026-05-05 03:17 38.70162 -118.87269 32924 ft 454 kts 117°
2026-05-05 03:17 38.67377 -118.80089 32923 ft 455 kts 117°
2026-05-05 03:18 38.64563 -118.72843 32912 ft 455 kts 117°
2026-05-05 03:18 38.61744 -118.65572 32908 ft 456 kts 118°
2026-05-05 03:19 38.57481 -118.54642 32913 ft 459 kts 118°
2026-05-05 03:19 38.54623 -118.47329 32909 ft 460 kts 119°
2026-05-05 03:20 38.51682 -118.40047 32901 ft 459 kts 125°
2026-05-05 03:20 38.49783 -118.36871 32910 ft 455 kts 136°
2026-05-05 03:20 38.47543 -118.34033 32911 ft 454 kts 139°
2026-05-05 03:21 38.42970 -118.28471 32927 ft 455 kts 141°
2026-05-05 03:21 38.38381 -118.22932 32933 ft 454 kts 140°
2026-05-05 03:22 38.33803 -118.17354 32924 ft 454 kts 141°
2026-05-05 03:22 38.29956 -118.12695 33485 ft 463 kts 141°
2026-05-05 03:23 38.27621 -118.09880 34343 ft 462 kts 142°
2026-05-05 03:23 38.25296 -118.07072 35212 ft 459 kts 142°
2026-05-05 03:23 38.22233 -118.03363 36278 ft 456 kts 143°
2026-05-05 03:23 38.19932 -118.00583 36888 ft 457 kts 143°
2026-05-05 03:24 38.16137 -117.96006 36896 ft 442 kts 143°
2026-05-05 03:24 38.11741 -117.90719 36903 ft 434 kts 144°
2026-05-05 03:25 38.07346 -117.85464 36931 ft 434 kts 144°
2026-05-05 03:25 38.02956 -117.80195 36914 ft 434 kts 144°
2026-05-05 03:26 37.98366 -117.75347 36930 ft 426 kts 152°
2026-05-05 03:26 37.93493 -117.71113 36915 ft 424 kts 153°
2026-05-05 03:27 37.88634 -117.66930 36919 ft 425 kts 153°
2026-05-05 03:27 37.83733 -117.62696 36926 ft 426 kts 153°
2026-05-05 03:28 37.78828 -117.58461 36919 ft 427 kts 153°
2026-05-05 03:28 37.73922 -117.54242 36919 ft 426 kts 153°
2026-05-05 03:29 37.69020 -117.50030 36915 ft 426 kts 153°
2026-05-05 03:29 37.64108 -117.45818 36913 ft 427 kts 153°
2026-05-05 03:30 37.59226 -117.41636 36920 ft 426 kts 154°
2026-05-05 03:30 37.54311 -117.37435 36928 ft 426 kts 154°
2026-05-05 03:31 37.49407 -117.33249 36929 ft 425 kts 154°
2026-05-05 03:31 37.44478 -117.29054 36932 ft 427 kts 154°
2026-05-05 03:32 37.39577 -117.24877 36923 ft 425 kts 154°
2026-05-05 03:32 37.34691 -117.20730 36898 ft 426 kts 154°
2026-05-05 03:33 37.29787 -117.16567 36906 ft 425 kts 154°
2026-05-05 03:33 37.24876 -117.12412 36904 ft 425 kts 155°
2026-05-05 03:34 37.19971 -117.08263 36910 ft 425 kts 155°
2026-05-05 03:34 37.15071 -117.04126 36900 ft 424 kts 155°
2026-05-05 03:35 37.10169 -116.99998 36909 ft 424 kts 155°
2026-05-05 03:35 37.05255 -116.95865 36911 ft 425 kts 155°
2026-05-05 03:36 37.00628 -116.91973 36906 ft 424 kts 155°
2026-05-05 03:36 36.96377 -116.88409 36903 ft 424 kts 155°
2026-05-05 03:37 36.91484 -116.84310 36889 ft 423 kts 155°
2026-05-05 03:37 36.86585 -116.80214 36905 ft 423 kts 156°
2026-05-05 03:38 36.81751 -116.76002 36913 ft 431 kts 148°
2026-05-05 03:38 36.79648 -116.73231 36930 ft 450 kts 136°
2026-05-05 03:38 36.77974 -116.69843 36945 ft 464 kts 128°
2026-05-05 03:39 36.75011 -116.62672 36909 ft 463 kts 127°
2026-05-05 03:39 36.72071 -116.55504 36896 ft 462 kts 128°
2026-05-05 03:40 36.69083 -116.48438 36895 ft 463 kts 128°
2026-05-05 03:40 36.66101 -116.41312 36898 ft 464 kts 128°
2026-05-05 03:41 36.63122 -116.34188 36900 ft 464 kts 128°
2026-05-05 03:41 36.60123 -116.27071 36891 ft 463 kts 128°
2026-05-05 03:42 36.57122 -116.19958 36898 ft 464 kts 129°
2026-05-05 03:42 36.54141 -116.12892 36900 ft 464 kts 129°
2026-05-05 03:43 36.51130 -116.05787 36908 ft 464 kts 129°
2026-05-05 03:43 36.48123 -115.98698 36921 ft 464 kts 129°
2026-05-05 03:44 36.45103 -115.91604 36848 ft 464 kts 130°
2026-05-05 03:44 36.42076 -115.84495 36863 ft 466 kts 130°
2026-05-05 03:45 36.39037 -115.77375 36859 ft 466 kts 130°
2026-05-05 03:45 36.36024 -115.70339 36844 ft 463 kts 130°
2026-05-05 03:46 36.32981 -115.63249 36835 ft 465 kts 130°
2026-05-05 03:46 36.29937 -115.56162 36860 ft 465 kts 130°
2026-05-05 03:47 36.26883 -115.49074 36845 ft 465 kts 130°
2026-05-05 03:47 36.23832 -115.42001 36837 ft 465 kts 130°
2026-05-05 03:48 36.20776 -115.34944 36841 ft 465 kts 130°
2026-05-05 03:48 36.17716 -115.27887 36836 ft 465 kts 130°
2026-05-05 03:49 36.14644 -115.20819 36839 ft 467 kts 131°
2026-05-05 03:49 36.11586 -115.13791 36850 ft 467 kts 131°
2026-05-05 03:50 36.08502 -115.06721 36852 ft 466 kts 131°
2026-05-05 03:50 36.05412 -114.99657 36853 ft 466 kts 131°
2026-05-05 03:51 36.02322 -114.92607 36869 ft 467 kts 131°
2026-05-05 03:51 35.99215 -114.85564 36874 ft 465 kts 133°
2026-05-05 03:52 35.95813 -114.78941 36875 ft 450 kts 140°
2026-05-05 03:52 35.92430 -114.72883 36871 ft 453 kts 139°
2026-05-05 03:53 35.89014 -114.66290 36888 ft 458 kts 137°
2026-05-05 03:53 35.85584 -114.59702 36899 ft 455 kts 139°
2026-05-05 03:54 35.82107 -114.53200 36885 ft 454 kts 139°
2026-05-05 03:54 35.78644 -114.46662 36888 ft 458 kts 138°
2026-05-05 03:55 35.75173 -114.40097 36900 ft 456 kts 139°
2026-05-05 03:55 35.71685 -114.33544 36904 ft 457 kts 139°
2026-05-05 03:56 35.68221 -114.27052 36907 ft 456 kts 139°
2026-05-05 03:56 35.64741 -114.20525 36912 ft 457 kts 139°
2026-05-05 03:57 35.61250 -114.13993 36900 ft 456 kts 139°
2026-05-05 03:57 35.57762 -114.07488 36915 ft 456 kts 139°
2026-05-05 03:58 35.54309 -114.01049 36928 ft 456 kts 139°
2026-05-05 03:58 35.50924 -113.94759 36943 ft 459 kts 139°
2026-05-05 03:59 35.47403 -113.88223 36971 ft 458 kts 139°
2026-05-05 03:59 35.43899 -113.81732 36991 ft 461 kts 139°
2026-05-05 04:00 35.40352 -113.75175 36983 ft 460 kts 139°
2026-05-05 04:00 35.36811 -113.68635 37005 ft 461 kts 139°
2026-05-05 04:01 35.33259 -113.62094 37016 ft 460 kts 139°
2026-05-05 04:01 35.29708 -113.55562 37036 ft 459 kts 139°
2026-05-05 04:02 35.26172 -113.49082 37009 ft 462 kts 139°
2026-05-05 04:02 35.22585 -113.42514 36991 ft 461 kts 139°
2026-05-05 04:03 35.19023 -113.36013 37002 ft 465 kts 139°
2026-05-05 04:03 35.15428 -113.29448 37019 ft 465 kts 139°
2026-05-05 04:04 35.11821 -113.22876 37028 ft 467 kts 139°
2026-05-05 04:04 35.08192 -113.16278 37031 ft 466 kts 139°
2026-05-05 04:05 35.04572 -113.09704 37032 ft 467 kts 139°
2026-05-05 04:05 35.00946 -113.03151 37033 ft 470 kts 139°
2026-05-05 04:06 34.99106 -112.99832 36328 ft 476 kts 139°
2026-05-05 04:06 34.97243 -112.96470 35535 ft 478 kts 139°
2026-05-05 04:06 34.95384 -112.93099 34739 ft 478 kts 138°
2026-05-05 04:06 34.93528 -112.89735 33953 ft 477 kts 137°
2026-05-05 04:07 34.91667 -112.86377 33167 ft 476 kts 137°
2026-05-05 04:07 34.89810 -112.83040 32329 ft 474 kts 136°
2026-05-05 04:07 34.87966 -112.79726 31515 ft 470 kts 136°
2026-05-05 04:07 34.86168 -112.76491 30726 ft 466 kts 135°
2026-05-05 04:08 34.84361 -112.73243 29929 ft 461 kts 135°
2026-05-05 04:08 34.82571 -112.70030 29137 ft 456 kts 135°
2026-05-05 04:08 34.80799 -112.66855 28342 ft 451 kts 134°
2026-05-05 04:08 34.79046 -112.63720 27558 ft 445 kts 134°
2026-05-05 04:09 34.77315 -112.60624 26788 ft 440 kts 134°
2026-05-05 04:09 34.75602 -112.57562 26024 ft 435 kts 134°
2026-05-05 04:09 34.73917 -112.54554 25407 ft 426 kts 133°
2026-05-05 04:09 34.72821 -112.52593 25058 ft 419 kts 133°
2026-05-05 04:10 34.71184 -112.49690 24554 ft 411 kts 136°
2026-05-05 04:10 34.69326 -112.47174 24114 ft 391 kts 147°
2026-05-05 04:10 34.67264 -112.45086 23659 ft 382 kts 150°
2026-05-05 04:10 34.65225 -112.43074 23213 ft 374 kts 150°
2026-05-05 04:11 34.63205 -112.41107 22780 ft 368 kts 150°
2026-05-05 04:11 34.61214 -112.39176 22361 ft 363 kts 150°
2026-05-05 04:11 34.59253 -112.37275 21949 ft 371 kts 149°
2026-05-05 04:11 34.57222 -112.35300 21509 ft 372 kts 149°
2026-05-05 04:12 34.55220 -112.33334 21070 ft 366 kts 149°
2026-05-05 04:12 34.53260 -112.31407 20650 ft 360 kts 149°
2026-05-05 04:12 34.51330 -112.29518 20228 ft 353 kts 148°
2026-05-05 04:12 34.49393 -112.27644 19819 ft 363 kts 148°
2026-05-05 04:13 34.47408 -112.25729 19387 ft 363 kts 148°
2026-05-05 04:13 34.45415 -112.23931 18987 ft 350 kts 156°
2026-05-05 04:13 34.43258 -112.22731 18592 ft 334 kts 169°
2026-05-05 04:13 34.41019 -112.22074 18207 ft 343 kts 173°
2026-05-05 04:14 34.38693 -112.21466 17795 ft 339 kts 174°
2026-05-05 04:14 34.36400 -112.20877 17377 ft 332 kts 174°
2026-05-05 04:14 34.34168 -112.20304 17000 ft 324 kts 173°
2026-05-05 04:14 34.31941 -112.19732 16620 ft 334 kts 173°
2026-05-05 04:15 34.29673 -112.19149 16267 ft 329 kts 173°
2026-05-05 04:15 34.27456 -112.18570 15902 ft 322 kts 173°
2026-05-05 04:15 34.25286 -112.18003 15525 ft 316 kts 173°
2026-05-05 04:15 34.23119 -112.17446 15147 ft 327 kts 173°
2026-05-05 04:16 34.20886 -112.16878 14731 ft 324 kts 173°
2026-05-05 04:16 34.18708 -112.16310 14376 ft 316 kts 172°
2026-05-05 04:16 34.16591 -112.15753 14036 ft 308 kts 172°
2026-05-05 04:16 34.14466 -112.15210 13685 ft 319 kts 173°
2026-05-05 04:17 34.12339 -112.14669 13322 ft 313 kts 172°
2026-05-05 04:17 34.10246 -112.14128 13156 ft 301 kts 172°
2026-05-05 04:17 34.08217 -112.13602 13011 ft 298 kts 172°
2026-05-05 04:17 34.06209 -112.13084 12762 ft 291 kts 172°
2026-05-05 04:18 34.04232 -112.12578 12547 ft 288 kts 172°
2026-05-05 04:18 34.02269 -112.12074 12320 ft 289 kts 172°
2026-05-05 04:18 34.00331 -112.11492 12104 ft 287 kts 168°
2026-05-05 04:18 33.98409 -112.10808 11869 ft 286 kts 167°
2026-05-05 04:19 33.96533 -112.10131 11691 ft 277 kts 167°
2026-05-05 04:19 33.94701 -112.09470 11423 ft 272 kts 167°
2026-05-05 04:19 33.92890 -112.08818 11050 ft 271 kts 167°
2026-05-05 04:19 33.91080 -112.08171 10662 ft 271 kts 167°
2026-05-05 04:20 33.89273 -112.07535 10297 ft 270 kts 167°
2026-05-05 04:20 33.87469 -112.06907 9956 ft 269 kts 167°
2026-05-05 04:20 33.85698 -112.06292 9725 ft 260 kts 167°
2026-05-05 04:20 33.83986 -112.05702 9428 ft 254 kts 167°
2026-05-05 04:21 33.82297 -112.05121 9034 ft 252 kts 167°
2026-05-05 04:21 33.80628 -112.04555 8620 ft 252 kts 167°
2026-05-05 04:21 33.78936 -112.03989 8218 ft 252 kts 167°
2026-05-05 04:21 33.77253 -112.03436 7819 ft 251 kts 167°
2026-05-05 04:22 33.75569 -112.02893 7432 ft 250 kts 167°
2026-05-05 04:22 33.73891 -112.02348 7038 ft 250 kts 163°
2026-05-05 04:22 33.72438 -112.01210 6628 ft 254 kts 133°
2026-05-05 04:22 33.71635 -111.99328 6270 ft 257 kts 104°
2026-05-05 04:23 33.71553 -111.97203 6082 ft 249 kts 90°
2026-05-05 04:23 33.71634 -111.95181 5951 ft 237 kts 88°
2026-05-05 04:23 33.71728 -111.93214 5650 ft 235 kts 88°
2026-05-05 04:23 33.71821 -111.91277 5304 ft 235 kts 88°
2026-05-05 04:24 33.71912 -111.89308 5070 ft 239 kts 88°
2026-05-05 04:24 33.71988 -111.87302 5050 ft 234 kts 88°
2026-05-05 04:24 33.72058 -111.85321 5053 ft 237 kts 88°
2026-05-05 04:25 33.72200 -111.81384 5044 ft 236 kts 88°
2026-05-05 04:25 33.71987 -111.79453 5041 ft 233 kts 115°
2026-05-05 04:25 33.70985 -111.77963 5032 ft 230 kts 147°
2026-05-05 04:25 33.69523 -111.77260 5041 ft 227 kts 167°
2026-05-05 04:26 33.67978 -111.76826 5041 ft 227 kts 169°
2026-05-05 04:26 33.66430 -111.76421 5036 ft 229 kts 169°
2026-05-05 04:26 33.64879 -111.76018 5034 ft 228 kts 169°
2026-05-05 04:26 33.63345 -111.75617 5034 ft 228 kts 169°
2026-05-05 04:27 33.61793 -111.75210 5030 ft 224 kts 169°
2026-05-05 04:27 33.60287 -111.74819 5026 ft 224 kts 169°
2026-05-05 04:27 33.58761 -111.74422 5030 ft 225 kts 169°
2026-05-05 04:27 33.57218 -111.74187 5030 ft 223 kts 178°
2026-05-05 04:28 33.55666 -111.74106 5040 ft 223 kts 179°
2026-05-05 04:28 33.54113 -111.74041 5038 ft 223 kts 179°
2026-05-05 04:28 33.52557 -111.73977 5030 ft 224 kts 179°
2026-05-05 04:28 33.51006 -111.73913 5029 ft 224 kts 179°
2026-05-05 04:29 33.49446 -111.73848 5025 ft 223 kts 179°
2026-05-05 04:29 33.47909 -111.73782 5022 ft 224 kts 179°
2026-05-05 04:29 33.46390 -111.74034 5009 ft 218 kts 201°
2026-05-05 04:29 33.45168 -111.74924 4977 ft 195 kts 223°
2026-05-05 04:30 33.44389 -111.76166 4834 ft 179 kts 243°
2026-05-05 04:30 33.44053 -111.77569 4615 ft 172 kts 263°
2026-05-05 04:30 33.44040 -111.78972 4398 ft 166 kts 268°
2026-05-05 04:30 33.44045 -111.80320 4179 ft 161 kts 268°
2026-05-05 04:31 33.44049 -111.81622 3972 ft 157 kts 268°
2026-05-05 04:31 33.44053 -111.82908 3768 ft 153 kts 268°
2026-05-05 04:31 33.44058 -111.84208 3561 ft 156 kts 268°
2026-05-05 04:31 33.44061 -111.85475 3357 ft 154 kts 268°
2026-05-05 04:32 33.44063 -111.86760 3155 ft 154 kts 268°
2026-05-05 04:32 33.44066 -111.88045 2936 ft 152 kts 268°
2026-05-05 04:32 33.44068 -111.89270 2747 ft 141 kts 268°
2026-05-05 04:32 33.44070 -111.90417 2568 ft 137 kts 268°
2026-05-05 04:33 33.44071 -111.91551 2390 ft 137 kts 269°
2026-05-05 04:33 33.44072 -111.92699 2208 ft 138 kts 270°
2026-05-05 04:33 33.44074 -111.93853 2030 ft 139 kts 270°
2026-05-05 04:33 33.44076 -111.95021 1847 ft 141 kts 270°
2026-05-05 04:34 33.44078 -111.96205 1652 ft 143 kts 270°
2026-05-05 04:34 33.44081 -111.97398 1443 ft 142 kts 270°
2026-05-05 04:34 33.44083 -111.98536 1261 ft 132 kts 270°
2026-05-05 04:34 33.44084 -111.99622 1138 ft 126 kts 270°
2026-05-05 04:35 33.44088 -112.00255 1133 ft 46 kts 271°
2026-05-05 04:35 33.44027 -112.00470 1131 ft 20 kts 186°
2026-05-05 04:35 33.43950 -112.00474 1130 ft 0 kts 174°
2026-05-05 04:35 33.43930 -112.00466 1132 ft 4 kts 154°
2026-05-05 04:36 33.43907 -112.00388 1133 ft 22 kts 95°
2026-05-05 04:36 33.43905 -112.00258 1130 ft 8 kts 87°
2026-05-05 04:36 33.43868 -112.00203 1135 ft 11 kts 155°
2026-05-05 04:36 33.43834 -112.00199 1130 ft 0 kts 179°